STARLINK-5699, 55449

Orbit data source: Space-Track

STARLINK-5699, 55449 is a payload satellite owned by SpaceX/Seattle (US) in LEO that was launched on Thu, 02 Feb 2023 UTC via an FALCON 9 launch vehicle from the Air Force Eastern Test Range (AFETR). Payload-class satellites include a variety of spacecraft equipped with specific instruments for various scientific and technological missions. These include communications satellites like Starlink; space stations such as the ISS; scientific satellites like the Hubble; Earth observation satellites from companies like Planet Labs, Umbra, and HawkEye 360; GPS; miniature CubeSats for education and research; and military/defense satellites.

Loading next visibility...
Identifier
55449, 2023-015A
Orbit
LEO
Country
Flag of USUS
Related business
Manufacturer
SpaceX/Seattle
Mission
Operational Commercial Communications
Bus & Motor
STARLINK, Unknown motor
Mass
305 kg wet, ~290 kg dry
Launch date (UTC)
2023-02-02 (4 years ago)
Launch vehicle
FALCON 9
Launch site
Air Force Eastern Test Range (AFETR)
Object type
Payload
Rocket body
Debris
Shape & HBR
Box + 1 Pan, 10.1 m
Radar Cross Section
13.562 m², Large (>1 m²)

Expand to show TLE details & history
Last TLE update: 5 hours ago

TLE from 5 hours ago
0 STARLINK-5699
1 55449U 23015A   26258.47520039  .00000131  00000-0  14304-4 0  9992
2 55449  43.0055 337.2306 0001623 296.5659  63.5026 15.27579941200682
Epoch: 2026-09-15T11:24Z
TLE epoch observation values (Epoch: 2026-09-15T11:24:17.313Z)
Latitude
-0.00005°
Longitude
171.7178°
Altitude
482.329 km
Speed
7.626 km/s
True Right ascension
22h 28m 55s
True Declination
0° 00' 00"
Sunlit
Object was in full shadow at epoch
Visualization orbit readout
Latitude
Unknown
Longitude
Unknown
Altitude
Unknown
Speed
Unknown
Apparent Right ascension
Unknown
Apparent Declination
Unknown
Sunlit
N/A
Visualization observer readout
Local Sidereal Time
09:25:57
Azimuth
Unknown
Elevation
Unknown
Doppler factor
Unknown
Orbital elements
Apogee altitude
486.107 km
Perigee altitude
483.88 km
Semi-major axis
6,863.131 km
Eccentricity
0.00016
Inclination
43.0055°
RAAN
337.2306°
Arg. of periapsis
296.5659°
True anomaly
63.51925°
Mean anomaly
63.5026°
Eccentric anomaly
63.51092°
Mean motion
3.81733 °/min
Orbital period
94.31 mins
BSTAR
0.000014304
Loading maneuver chart data...
Computing Atmospheric mass density...
Loading historical data...
Loading historical data...
Loading historical data...
Loading historical data...
Loading historical data...
Loading historical data...
Loading historical data...

Documentation

Showing up to 5 results
|